Погода в Парксе

Австралия     33°08′14″S   148°10′27″E
темп.,
°C
ветер,
м/с
пор.,
м/с
влажн.,
%
обл.,
%
осадки,
мм/ч
давл.,
гПа
погр.,
м
21 января, чт
чт2123:00+21св814541 0.0 1017384
02:00+18всв410620 0.0 1017308
05:00+17всв39650 0.0 1016271
08:00+20св410548 0.0 1018472
11:00+27с684033 0.0 1016959
14:00+32ссз642898 0.0 10132523
17:00+32ссз322471 0.0 10102894
20:00+23с6105950 0.0 1010443
22 января, пт
пт2223:00+22с5116140 0.0 1012382
02:00+20с5125916 0.0 1012497
05:00+21с5106456 0.1 1011401
08:00+23ссв595818 0.1 1012611
11:00+28ссз79429 0.2 10121165
14:00+32сз78330 0.0 10092105
17:00+34сз56230 0.0 10073221
20:00+30с342536 0.0 100868
23 января, сб
сб2323:00+26ссв462931 0.0 1009143
02:00+24с514530 0.0 1010549
05:00+23с513593 0.0 1010492
08:00+26с712463 0.0 1011542
11:00+32ссз79312 0.0 10121205
14:00+36сз66180 0.0 10093431
17:00+37ссз46150 0.0 10083704
20:00+33с47200 0.0 1008152
24 января, вс
вс2423:00+28ссв512260 0.0 1010301
02:00+26ссв39370 0.0 1010230
05:00+25ссв410420 0.0 1011245
08:00+28с611360 0.0 1013576
11:00+33ссз782825 0.0 10121214
14:00+37сз552098 0.0 10092601
17:00+37сз451699 0.0 10073605
20:00+32сз4622100 0.0 1007141
25 января, пн
пн2523:00+30ссз1226100 0.1 100935
02:00+28с41239100 0.0 1007401
05:00+26с234195 0.0 100743
08:00+28с483782 0.0 1009457
11:00+34ссз772759 0.0 10081429
14:00+36с652226 0.0 10052653
17:00+38ссз561833 0.0 10033480
20:00+33ссз492314 0.0 1004282